Flag for Kazakhstan Weather past 2 weeks in Aqtobe, Kazakhstan

Now
70 °F

Sunny.


Feels Like: 70 °F
Forecast: 63 / 84 °F
Wind: 22 mph from Northwest

Location: Aktjubinsk

Current Time: Jul 4, 2015 at 2:36:45 PM

Latest Report: Jul 4, 2015 at 2:00 PM


Visibility: 10 mi

Pressure: 29.92 "Hg

Humidity: 27%

Dew point: 34 °F

Location of AqtobeLocation

Historic Weather in Aqtobe — Graph

°F

Aqtobe temperature yesterday

Maximum temperature yesterday: 84 °F (at 7:00 PM)
Minimum temperature yesterday: 61 °F (at 5:30 AM)
Average temperature yesterday: 74 °F

Past Weeks' High & Low Weather Summary

 TemperatureHumidityPressure
High100 °F (Jun 28, 3:30 PM)94% (Jul 2, 4:00 AM)30.04 "Hg (Jul 2, 4:00 AM)
Low57 °F (Jul 4, 6:30 AM)13% (Jun 22, 3:30 PM)29.62 "Hg (Jun 26, 5:30 PM)
Average83 °F36%29.83 "Hg
* Reported Jun 19 1:00 PM — Jul 4 1:30 PM, Aqtobe, Weather by CustomWeather, © 2015

Note: Actual official high and low records may vary slightly from our data, if they occured in-between our weather recording intervals... More about our weather records

Advertising

Aqtobe weather history for previous 24 hours

 ConditionsComfort  
Time TempWeatherWind HumidityBarometerVisibility
1:30 PM
Sat, Jul 4
68 °FSunny.20 mph28%29.92 "Hg10 mi
1:00 PM68 °FPassing clouds.17 mph28%29.92 "HgN/A
12:30 PM66 °FSunny.22 mph30%29.92 "Hg10 mi
12:00 PM64 °FPassing clouds.20 mph34%29.92 "HgN/A
11:30 AM63 °FPartly sunny.22 mph37%29.92 "HgN/A
11:00 AM64 °FBroken clouds.20 mph37%29.92 "HgN/A
10:30 AM63 °FScattered clouds.20 mph39%29.89 "HgN/A
10:00 AM63 °FPartly sunny.22 mph42%29.89 "HgN/A
9:30 AM63 °FPartly sunny.17 mph52%29.89 "HgN/A
9:00 AM61 °FPartly sunny.22 mph59%29.89 "HgN/A
8:30 AM59 °FPartly sunny.17 mph68%29.89 "HgN/A
8:00 AM59 °FPartly sunny.17 mph77%29.89 "HgN/A
7:30 AM57 °FPartly sunny.15 mph82%29.86 "HgN/A
7:00 AM59 °FPartly sunny.20 mph77%29.86 "HgN/A
6:30 AM57 °FPartly sunny.13 mph88%29.86 "HgN/A
6:00 AM59 °FPartly sunny.15 mph82%29.83 "HgN/A
5:30 AM59 °FPartly sunny.17 mph88%29.83 "Hg4 mi
5:00 AM59 °FFog.17 mph88%29.83 "Hg2 mi
4:30 AM59 °FPassing clouds.13 mph88%29.80 "HgN/A
4:00 AM59 °FPartly cloudy.10 mph88%29.80 "HgN/A
3:30 AM61 °FPartly cloudy.10 mph77%29.80 "HgN/A
3:00 AM63 °FPartly cloudy.6 mph68%29.80 "HgN/A
2:30 AM63 °FMostly cloudy.10 mph68%29.80 "HgN/A
2:00 AM63 °FMostly cloudy.17 mph64%29.83 "HgN/A
1:30 AM64 °FMostly cloudy.20 mph60%29.83 "HgN/A
1:00 AM70 °FPartly cloudy.24 mph50%29.80 "HgN/A
12:30 AM72 °FPartly cloudy.13 mph44%29.77 "HgN/A
12:00 AM73 °FPartly cloudy.15 mph41%29.77 "HgN/A
11:30 PM
Fri, Jul 3
73 °FPartly cloudy.3 mph33%29.77 "HgN/A
11:00 PM73 °FPartly cloudy.6 mph33%29.77 "HgN/A
10:30 PM75 °FClear.6 mph31%29.80 "Hg6 mi
10:00 PM77 °FClear.6 mph30%29.80 "Hg10 mi
9:30 PM79 °FClear.8 mph28%29.77 "Hg10 mi
9:00 PM81 °FSunny.8 mph26%29.77 "Hg10 mi
8:30 PM81 °FSunny.10 mph26%29.80 "Hg10 mi
8:00 PM82 °FSunny.13 mph23%29.80 "Hg10 mi
7:30 PM84 °FPassing clouds.13 mph22%29.80 "HgN/A
7:00 PM84 °FSunny.13 mph23%29.80 "Hg10 mi
6:30 PM82 °FSunny.17 mph23%29.80 "Hg10 mi
6:00 PM82 °FSunny.8 mph23%29.83 "Hg10 mi
5:30 PM82 °FPassing clouds.10 mph25%29.83 "HgN/A
5:00 PM82 °FSunny.10 mph23%29.83 "Hg10 mi
4:30 PM82 °FPassing clouds.13 mph23%29.83 "HgN/A
4:00 PM82 °FSunny.17 mph21%29.86 "Hg10 mi
3:30 PM82 °FPassing clouds.8 mph21%29.86 "HgN/A
3:00 PM82 °FSunny.13 mph20%29.86 "Hg10 mi
2:30 PM82 °FPassing clouds.13 mph19%29.89 "HgN/A
2:00 PM81 °FScattered clouds.13 mph20%29.89 "HgN/A
Weather by CustomWeather, © 2015

See weather overviewHow to use our weather pages